Regional Weather Roundup
Issued by NWS

Home | Current Version | Previous Version | Text Only | Print | Product List | Glossary On
Versions: 1 2 3 4 5 6 7 8 9 10 11 12 13 14 15 16 17 18 19 20 21 22 23 24 25 26 27 28 29 30 31 32 33 34 35 36 37 38 39 40 41 42 43 44 45 46 47 48 49 50
000
ASUS43 KDMX 300307
RWRIA

WEATHER ROUNDUP FOR IOWA
NATIONAL WEATHER SERVICE DES MOINES IA
1000 PM CDT SAT AUG 29 2015

NOTE: "FAIR" INDICATES FEW OR NO CLOUDS BELOW 12,000 FEET WITH NO
SIGNIFICANT WEATHER AND/OR OBSTRUCTIONS TO VISIBILITY.

* - THESE STATIONS ARE NOT NWS STATIONS...THUS NOT UNDER NWS
QUALITY CONTROL.  THEY ALSO DO NOT REPORT WEATHER SUCH
AS PRECIPITATION OR FOG.

IAZ001>003-012>014-020>022-031>034-043>046-300400-
   NORTHWEST IOWA

CITY           SKY/WX    TMP DP  RH WIND       PRES   REMARKS
CARROLL *      CLOUDY    64  63  94 SE3       30.07S
CHEROKEE *     CLOUDY    64  64 100 SE5       30.05S
DENISON *      CLOUDY    64  63  94 SE6       30.05S
LE MARS *      MOCLDY    63  63 100 S7        30.04S
ORANGE CITY *  CLEAR     64  63  94 S9        30.04S
SHELDON *      CLOUDY    61  61 100 SE6       30.03R
SPENCER        PTCLDY    62  59  90 S6        30.05S
STORM LAKE *   CLOUDY    63  63 100 S8        30.07S
$$

IAZ055>058-069>071-079>083-090>094-300400-
   SOUTHWEST IOWA

CITY           SKY/WX    TMP DP  RH WIND       PRES   REMARKS
ATLANTIC *     CLOUDY    68  64  88 SE5       30.06S
AUDUBON *      CLOUDY    64  61  88 CALM      30.09R
CLARINDA *     CLOUDY    68  66  94 CALM      30.08R
COUNCIL BLFS *   N/A     66  64  94 CALM      30.07R
CRESTON *        N/A    N/A N/A N/A MISG        N/A
HARLAN  *      CLOUDY    64 N/A N/A CALM      30.11R
LAMONI         PTCLDY    67  65  93 N6        30.06R
RED OAK *      CLOUDY    68  64  88 CALM      30.06S
SHENANDOAH *   CLOUDY    70  64  83 E5        30.06S
$$

IAZ047>049-059>061-072>074-084-300400-
   CENTRAL IOWA

CITY           SKY/WX    TMP DP  RH WIND       PRES   REMARKS
AMES           CLOUDY    66  64  93 SE3       30.06R
ANKENY *       CLOUDY    66  64  94 CALM      30.06R
CHARITON *     CLOUDY    68  66  94 CALM      30.05S
DES MOINES     CLOUDY    70  63  78 NE6       30.06R
GRINNELL*      PTCLDY    63  61  94 NW3       30.06S
KNOXVILLE *    PTCLDY    66  64  94 NE5       30.04S
MARSHALLTOWN   CLOUDY    67  65  93 CALM      30.06R
PELLA *        PTCLDY    64  64 100 CALM      30.05F
PERRY *        CLOUDY    66  64  94 CALM      30.06S
$$

IAZ004>006-015-016-023>025-035-036-300400-
   NORTH CENTRAL IOWA

CITY           SKY/WX    TMP DP  RH WIND       PRES   REMARKS
ALGONA *       CLOUDY    59  57  94 S5        30.06S FOG
CLARION *      MOCLDY    61  59  94 SW5       30.06S
ESTHERVILLE    CLEAR     60  59  96 S8        30.05R
FORT DODGE *   CLOUDY    64  61  88 CALM      30.07S
MASON CITY     PTCLDY    61  61 100 S3        30.07R
FOREST CITY *  FOG       57  57 100 CALM      30.06R VSB 3/4
IOWA FALLS *   CLOUDY    66  64  94 CALM      30.07S
$$

IAZ007>011-017>019-026>030-037>042-050>054-066-300400-
   NORTHEAST IOWA

CITY           SKY/WX    TMP DP  RH WIND       PRES   REMARKS
CEDAR RAPIDS   PTCLDY    63  63 100 N6        30.05R
CHARLES CITY * CLEAR     64  64 100 SE6       30.06F
CLINTON *      CLOUDY    68  66  94 N5        30.07S
DECORAH *      CLOUDY    64  63  94 CALM      30.06S
DUBUQUE        CLOUDY    67  64  90 N5        30.07S
MONTICELLO *   CLOUDY    68  64  88 CALM      30.06R
OELWEIN *      CLOUDY    64  63  94 CALM      30.08R
WATERLOO       CLOUDY    66  62  87 E5        30.05R
$$

IAZ064-065-067-068-078-300400-
   EAST CENTRAL IOWA

CITY           SKY/WX    TMP DP  RH WIND       PRES   REMARKS
DAVENPORT      CLEAR     65  63  93 CALM      30.05R FOG
IOWA CITY      PTCLDY    69  66  90 NE5       30.05R
MT. PLEASANT * PTCLDY    70  66  88 NE5       30.04S FOG
MUSCATINE *    CLEAR     68  66  94 CALM      30.04S FOG
QUAD CITIES    MOCLDY    65  63  93 CALM      30.04S FOG
$$

IAZ062-063-075>077-085>089-095>099-300400-
   SOUTHEAST IOWA

CITY           SKY/WX    TMP DP  RH WIND       PRES   REMARKS
BURLINGTON     MOCLDY    71  69  93 NE8       30.04R
FAIRFIELD *    CLEAR     66  64  94 NE6       30.04S
FORT MADISON * CLOUDY    70  70 100 CALM      30.05S FOG
KEOKUK *       CLOUDY    72  70  94 N5        30.03R
OSKALOOSA *      N/A     64  63  94 NE3       30.05S
CENTERVILLE *  FOG       63  63 100 CALM      30.07R VSB 3/4
OTTUMWA        CLOUDY    68  67  96 NE6       30.03S
WASHINGTON *     N/A    N/A N/A N/A MISG        N/A
$$

ABBREVIATIONS USED IN REMARKS
   TC - TEMPERATURES IN CELSIUS
  WCI - WIND CHILL INDEX
   HX - HEAT INDEX
  VSB - VISIBILITY
$$



USA.gov is the U.S. government's official web portal to all federal, state and local government web resources and services.